CZ-6A DEB

Satellite information

Favourite Embed

Satellite Type and Status

DEBRISIN ORBIT

Key statistics

Satellite CZ-6A DEB at a glance.

Uptime

969

Days in orbit

Revolutions

≈ 14.4

Per day

Orbit

SSO

Sun Synchronous Orbit

Inclination

98.8

Latest

Satellite identification and parameters

Extended collection of information and parameters for CZ-6A DEB.

Object identification

Identified? True

Debris? True

Object name: CZ-6A DEB

International designator: 2022-151JA

Object number (NORAD): 54498

Object ID (CCSDS): 54498

Country: PEOPLES REPUBLIC OF CHINA (PRC)

Current information (Y/N): Y

RCS size: SMALL

Orbital parameters

Period: 99.795 minutes

Inclination: 98.7811 deg

SMA: 7126.874 km

Apoapsis: 765.948 km

Periapsis: 731.529 km

RAAN: 223.7942 deg

Eccentricy: 0.0024147

Argument of periapsis: 284.532 deg

Mean anomaly: 75.3191 deg

Mean motion: 14.42959586 rev/day

Mean motion (dot): 0.00004756 rev/day2

B* drag term: 0.0014299 1/REarth

Two-line elements (TLE)

Creation date: July 5, 2025, 5:45 p.m.

Reference frame: TEME

Reference center: EARTH

Epoch: July 5, 2025, 1:12 a.m. UTC

TLE line 0: 0 CZ-6A DEB

TLE line 1: 1 54498U 22151JA 25186.05003268 .00004756 00000-0 14299-2 0 9996

TLE line 2: 2 54498 98.7811 223.7942 0024147 284.5320 75.3191 14.42959586137771

Live tracking on map

Real-time ground track for satellite CZ-6A DEB.

In-orbit conjunctions

A list of the most updated potential collisions computed for object CZ-6A DEB.

Target Orbit TCA Probability of collision Miss distance Type
SL-16 DEB LEO 2024-11-15 06:41:44 0.0001854816 918.0 (m) DEBRIS
MINOTAUR DEB SSO 2024-11-11 22:29:31 0.0006122738 427.0 (m) DEBRIS
EYESAT A SSO 2024-11-06 19:37:53 0.0001933973 443.0 (m) PAYLOAD

Associated space launch

Chinese satellite reported for atmospheric/ocean/environmental/spatial parameter research purposes, details TBD.

CZ-6A DEB was lifted into orbit during the mission ‘Long March 6A | Yunhai 3’, on board a Long March 6A space rocket.

The launch took place on Nov. 11, 2022, 10:52 p.m. from Launch Complex 9A.

For more information about the launch, click the button.

Launch to space Long March 6A | Yunhai 3
Long March 6A | Yunhai 3

Agency: N/A

Status: Launch Successful

Launch date: Nov. 11, 2022, 10:52 p.m. UTC

Rocket: Long March 6A

Launch pad: Launch Complex 9A

Location: Taiyuan Satellite Launch Center, People's Republic of China

...

Latest news about this satellite

There are no fresh news available about this satellite. Check back as we update our databases every day.


Newsletter sign-up

Weekly statistics, charts and insights to help you stay on top of the space industry.